DateTimeUTC,F1_A11,F1_S11,BsB_S11,BsG_S11,BsR_S11,BbsB_S11,BbsG_S11,BbsR_S11,BaB_A11,BaG_A11,BaR_A11,Tu_S11,T_S11,Uu_S11,U_S11,P_S11,T1_A11
2021-12-22T08:00:00Z,00000200,21000000,,,,,,,-000.24,-000.10,-000.12,20.8,27.7,,00.0,0667.2,31.3
2021-12-22T08:01:00Z,00000200,21000000,,,,,,,0000.41,0000.51,0000.30,20.8,27.7,,00.0,0667.2,31.3
2021-12-22T08:02:00Z,00000200,21000000,,,,,,,0000.03,0000.07,-000.00,20.9,27.7,,00.0,0667.2,31.3
2021-12-22T08:03:00Z,00000200,61000000,,,,,,,-000.34,-000.26,-000.05,20.9,27.7,,00.0,0667.3,31.4
2021-12-22T08:04:00Z,00000200,41000000,-000.03,0000.28,-000.14,-000.12,0000.03,-000.01,0000.18,0000.13,0000.21,21.1,27.6,,00.0,0668.1,31.4
2021-12-22T08:05:00Z,00000200,01000000,0000.37,0000.31,0000.07,0000.21,0000.17,0000.28,0000.27,-000.07,0000.09,21.1,27.6,,00.0,0668.2,31.4
2021-12-22T08:06:00Z,00000200,01000000,0000.62,0000.31,-000.10,-000.03,-000.04,0000.02,0000.04,0000.16,0000.02,21.1,27.5,,00.0,0668.2,31.3
2021-12-22T08:07:00Z,00000200,01000000,0000.16,0000.09,0000.13,-000.51,0000.25,-000.06,0000.12,0000.07,0000.12,21.0,27.5,,00.0,0668.1,31.3
2021-12-22T08:08:00Z,00000200,01000000,-000.04,0000.37,0000.23,0000.57,0000.14,0000.27,0000.14,0000.09,-000.07,20.9,27.5,,00.0,0668.1,31.3
2021-12-22T08:09:00Z,00000200,01000000,0000.17,0000.27,-000.10,0000.88,0000.22,-000.39,-000.03,0000.20,0000.24,20.8,27.4,,00.0,0668.1,31.3
2021-12-22T08:10:00Z,00000200,01000000,0000.69,0000.19,-000.24,-000.51,0000.22,-000.17,0000.14,-000.03,0000.00,20.8,27.4,,00.0,0668.1,31.2
2021-12-22T08:11:00Z,00000200,01000000,0000.37,-000.08,0000.25,0000.08,0000.49,0000.22,0000.12,0000.37,0000.10,20.8,27.3,,00.0,0668.1,31.2
2021-12-22T08:12:00Z,00000200,01000000,0000.81,0000.06,0000.18,-000.08,-000.01,-000.11,0000.34,0000.22,0000.44,20.8,27.3,,00.0,0668.2,31.2
2021-12-22T08:13:00Z,00000200,01000000,0000.72,0000.08,0000.04,0000.39,0000.15,-000.40,0000.32,-000.01,0000.10,20.8,27.3,,00.0,0668.2,31.2
2021-12-22T08:14:00Z,00000200,01000000,-000.25,0000.39,0000.21,0000.08,0000.25,0000.07,0000.27,0000.80,0000.20,20.9,27.3,,00.0,0668.3,31.2
2021-12-22T08:15:00Z,00000200,01000000,-000.36,0000.10,0000.01,-000.06,0000.04,-000.27,0000.05,-000.28,0000.01,20.9,27.4,,00.0,0668.3,31.2
2021-12-22T08:16:00Z,00000200,01000000,0000.48,0000.33,0000.31,0000.36,-000.01,-000.05,0000.30,0000.35,0000.03,21.0,27.4,,00.0,0668.3,31.2
2021-12-22T08:17:00Z,00000200,01000000,0000.67,0000.43,0000.02,0000.03,0000.05,-000.11,-000.00,0000.29,0000.29,21.0,27.4,,00.0,0668.4,31.2
2021-12-22T08:18:00Z,00000200,01000000,0000.00,0000.13,0000.14,0000.40,0000.34,-000.19,0000.06,-000.09,-000.17,21.1,27.4,,00.0,0668.4,31.3
2021-12-22T08:19:00Z,00000200,01000000,-000.29,0000.15,0000.02,-000.17,0000.09,0000.03,0000.21,0000.07,0000.22,21.1,27.4,,00.0,0668.4,31.3
2021-12-22T08:20:00Z,00000200,01000000,0000.36,0000.47,0000.02,0000.02,0000.25,-000.07,-000.01,0000.22,0000.05,21.1,27.4,,00.0,0668.4,31.3
2021-12-22T08:21:00Z,00000200,01000000,0000.93,0000.42,0000.24,-000.05,0000.20,-000.05,0000.20,-000.02,-000.12,21.0,27.4,,00.0,0668.4,31.3
2021-12-22T08:22:00Z,00000200,01000000,0000.16,0000.31,-000.19,0000.53,-000.17,-000.10,0000.14,-000.33,0000.28,21.0,27.4,,00.0,0668.4,31.2
2021-12-22T08:23:00Z,00000200,01000000,0001.05,0000.47,-000.07,0000.28,0000.22,-000.51,0000.09,0000.64,0000.05,20.9,27.3,,00.0,0668.4,31.2
2021-12-22T08:24:00Z,00000200,01000000,0000.49,0000.17,0000.32,0000.55,-000.18,0000.31,-000.03,-000.04,0000.34,20.8,27.3,,00.0,0668.4,31.2
2021-12-22T08:25:00Z,00000200,01000000,0000.60,0000.24,0000.07,0000.04,0000.29,-000.05,0000.11,-000.14,-000.22,20.7,27.3,,00.0,0668.4,31.2
2021-12-22T08:26:00Z,00000200,01000000,0000.52,0000.08,0000.08,0000.55,0000.09,0000.11,0000.43,0000.24,0000.42,20.7,27.2,,00.0,0668.4,31.2
2021-12-22T08:27:00Z,00000200,01000000,-000.32,0000.44,0000.03,0000.26,0000.05,-000.29,-000.07,0000.31,0000.08,20.8,27.2,,00.0,0668.4,31.2
2021-12-22T08:28:00Z,00000200,01000000,0000.66,0000.45,0000.46,0000.68,0000.05,0000.02,0000.20,0000.14,-000.09,20.8,27.2,,00.0,0668.5,31.2
2021-12-22T08:29:00Z,00000200,01000000,0000.19,0000.17,0000.51,-000.08,0000.12,-000.07,-000.23,0000.37,0000.04,20.8,27.2,,00.0,0668.5,31.2
2021-12-22T08:30:00Z,00000200,01000000,0000.60,0000.23,-000.10,0000.02,-000.17,0000.03,0000.75,-000.17,0000.41,20.9,27.3,,00.0,0668.6,31.3
2021-12-22T08:31:00Z,00000200,01000000,0000.32,0000.47,0000.10,-000.10,-000.12,0000.04,-000.19,0000.05,0000.10,21.0,27.3,,00.0,0668.6,31.3
2021-12-22T08:32:00Z,00000200,01000000,0000.20,0000.40,0000.26,0000.71,-000.08,0000.29,0000.04,0000.11,0000.01,21.0,27.3,,00.0,0668.6,31.3
2021-12-22T08:33:00Z,00000200,01000000,-000.17,0000.18,0000.01,0000.14,0000.00,-000.21,0000.38,0000.50,-000.30,21.1,27.3,,00.0,0668.6,31.3
2021-12-22T08:34:00Z,00000200,01000000,-000.30,-000.07,-000.21,-000.29,-000.05,-000.30,-000.09,-000.42,0000.37,21.1,27.4,,00.0,0668.6,31.3
2021-12-22T08:35:00Z,00000200,01000000,0000.39,0000.40,0000.44,0000.49,-000.07,-000.05,0000.04,-000.31,-000.16,21.1,27.4,,00.0,0668.6,31.3
2021-12-22T08:36:00Z,00000200,01000000,0000.92,0000.48,0000.06,-000.01,0000.34,-000.25,0000.33,0000.65,0000.55,21.2,27.4,,00.0,0668.6,31.3
2021-12-22T08:37:00Z,00000200,01000000,0000.30,0000.31,0000.37,0000.52,-000.04,-000.17,0000.10,0000.33,0000.24,21.1,27.4,,00.0,0668.6,31.3
2021-12-22T08:38:00Z,00000200,01000000,0000.14,0000.14,0000.27,-000.34,0000.00,-000.18,0000.18,0000.27,-000.11,21.1,27.4,,00.0,0668.6,31.3
2021-12-22T08:39:00Z,00000200,01000000,0000.60,0000.70,0000.12,0000.16,0000.35,0000.09,0000.28,0000.25,0000.54,21.0,27.4,,00.0,0668.6,31.3
2021-12-22T08:40:00Z,00000200,01000000,-000.10,0000.38,-000.21,0000.29,0000.03,0000.14,0000.13,-000.03,-000.34,20.9,27.3,,00.0,0668.7,31.2
2021-12-22T08:41:00Z,00000200,01000000,0000.50,0000.59,-000.17,0000.08,-000.37,-000.07,0000.30,0000.14,0000.19,20.9,27.3,,00.0,0668.7,31.2
2021-12-22T08:42:00Z,00000200,01000000,0000.87,0000.34,0000.03,0000.22,0000.03,0000.08,0000.31,0000.03,0000.20,20.9,27.3,,00.0,0668.8,31.2
2021-12-22T08:43:00Z,00000200,01000000,-000.89,0000.12,-000.15,0000.43,0000.18,-000.22,0000.06,0000.53,0000.09,21.0,27.3,,00.0,0668.7,31.2
2021-12-22T08:44:00Z,00000200,01000000,0000.96,0000.30,0000.31,0000.01,0000.11,-000.03,0000.19,-000.29,0000.22,21.0,27.3,,00.0,0668.8,31.2
2021-12-22T08:45:00Z,00000200,01000000,-000.31,0000.17,0000.04,-000.36,0000.15,-000.00,-000.04,0000.38,0000.31,21.1,27.3,,00.0,0668.8,31.3
2021-12-22T08:46:00Z,00000200,01000000,0000.59,0000.45,0000.24,-000.15,-000.06,0000.01,0000.34,0000.11,0000.05,21.1,27.4,,00.0,0668.9,31.3
2021-12-22T08:47:00Z,00000200,01000000,0000.55,0000.22,-000.16,-000.02,-000.04,-000.36,-000.08,0000.08,-000.28,21.1,27.4,,00.0,0668.8,31.3
2021-12-22T08:48:00Z,00000200,01000000,0000.59,0000.18,-000.07,-000.12,0000.05,-000.35,0000.05,0000.16,0000.24,21.2,27.4,,00.0,0668.8,31.3
2021-12-22T08:49:00Z,00000200,01000000,0000.13,0000.22,-000.19,-000.30,0000.17,-000.14,0000.20,0000.24,0000.01,21.2,27.4,,00.0,0668.8,31.3
2021-12-22T08:50:00Z,00000200,01000000,0000.21,0000.27,-000.03,0000.37,-000.14,0000.08,0000.54,0000.16,0000.67,21.1,27.4,,00.0,0668.8,31.3
2021-12-22T08:51:00Z,00000200,01000000,0000.24,-000.07,-000.16,-000.17,0000.19,-000.15,-000.21,0000.15,-000.40,21.1,27.4,,00.0,0668.8,31.3
2021-12-22T08:52:00Z,00000200,01000000,-000.23,0000.07,-000.00,0000.67,-000.32,0000.21,0000.67,-000.07,0000.24,21.0,27.4,,00.0,0668.8,31.2
2021-12-22T08:53:00Z,00000200,01000000,0000.32,0000.20,0000.12,0000.55,0000.03,0000.04,-000.32,0000.15,0000.13,20.9,27.3,,00.0,0668.8,31.2
2021-12-22T08:54:00Z,00000200,01000000,0000.02,0000.23,0000.15,0001.43,0000.01,-000.03,-000.10,0000.08,-000.12,20.8,27.3,,00.0,0668.8,31.2
2021-12-22T08:55:00Z,00000200,01000000,-000.78,0000.08,0000.27,0000.57,0000.02,0000.06,-000.05,-000.20,0000.04,20.7,27.2,,00.0,0668.8,31.2
2021-12-22T08:56:00Z,00000200,01000000,-000.15,0000.37,0000.39,0000.06,-000.02,0000.23,0000.29,0000.31,-000.10,20.7,27.2,,00.0,0668.8,31.2
2021-12-22T08:57:00Z,00000200,41000000,,,,,,,0000.28,0000.51,0000.48,20.8,27.2,,00.0,0668.8,31.2
2021-12-22T08:58:00Z,00000200,61000000,,,,,,,-000.56,-000.77,-000.31,20.5,27.3,,00.0,0667.9,31.2
2021-12-22T08:59:00Z,00000200,21000000,,,,,,,0000.07,-000.13,-000.15,20.6,27.4,,00.0,0667.9,31.2
